Hourly Weather Tuzla

Today, 3 July, Friday

Time Temperature Precipitation Wind Pressure Humidity
00:00 +20°C° 0 mm 1 mps 718 mmHg 89%
01:00 +20°C° 0 mm 1 mps 719 mmHg 89%
02:00 +19°C° 0 mm 1 mps 718 mmHg 89%
03:00 +19°C° 0 mm 1 mps 718 mmHg 90%
04:00 +17°C° 0 mm 0 mps 718 mmHg 90%
05:00 +18°C° 0 mm 0 mps 719 mmHg 87%
06:00 +20°C° 0 mm 0 mps 719 mmHg 83%
07:00 +22°C° 0 mm 0 mps 719 mmHg 80%
08:00 +25°C° 0.6 mm 1 mps 720 mmHg 81%
09:00 +25°C° 0.6 mm 1 mps 720 mmHg 82%
10:00 +26°C° 0.6 mm 2 mps 720 mmHg 83%
11:00 +26°C° 1 mm 2 mps 720 mmHg 81%
12:00 +26°C° 1 mm 2 mps 720 mmHg 80%
13:00 +26°C° 1 mm 2 mps 720 mmHg 78%
14:00 +26°C° 1.4 mm 3 mps 720 mmHg 82%
15:00 +25°C° 1.4 mm 3 mps 720 mmHg 85%
16:00 +24°C° 1.4 mm 3 mps 720 mmHg 89%
17:00 +23°C° 0.8 mm 2 mps 720 mmHg 90%
18:00 +21°C° 0.8 mm 2 mps 721 mmHg 92%
19:00 +21°C° 0.8 mm 1 mps 721 mmHg 94%
20:00 +21°C° 0 mm 1 mps 721 mmHg 94%
21:00 +20°C° 0 mm 1 mps 722 mmHg 94%
22:00 +19°C° 0 mm 1 mps 722 mmHg 94%
23:00 +19°C° 0 mm 1 mps 722 mmHg 95%

Tomorrow, 4 July, Saturday

Time Temperature Precipitation Wind Pressure Humidity
00:00 +19°C° 0 mm 1 mps 722 mmHg 95%
01:00 +18°C° 0 mm 1 mps 722 mmHg 96%
02:00 +18°C° 0 mm 1 mps 722 mmHg 96%
03:00 +16°C° 0 mm 0 mps 722 mmHg 95%
04:00 +16°C° 0 mm 0 mps 722 mmHg 95%
05:00 +17°C° 0 mm 0 mps 722 mmHg 93%
06:00 +19°C° 0 mm 1 mps 722 mmHg 92%
07:00 +20°C° 0 mm 1 mps 722 mmHg 90%
08:00 +21°C° 0 mm 1 mps 722 mmHg 83%
09:00 +22°C° 0 mm 1 mps 723 mmHg 75%
10:00 +24°C° 0 mm 1 mps 723 mmHg 68%
11:00 +24°C° 0 mm 2 mps 722 mmHg 67%
12:00 +24°C° 0 mm 2 mps 722 mmHg 66%
13:00 +25°C° 0 mm 2 mps 722 mmHg 65%
14:00 +25°C° 0 mm 2 mps 722 mmHg 66%
15:00 +25°C° 0 mm 2 mps 721 mmHg 66%
16:00 +25°C° 0 mm 2 mps 721 mmHg 67%
17:00 +24°C° 0 mm 1 mps 721 mmHg 73%
18:00 +22°C° 0 mm 1 mps 721 mmHg 79%
19:00 +21°C° 0 mm 1 mps 721 mmHg 85%
20:00 +20°C° 0 mm 1 mps 721 mmHg 87%
21:00 +19°C° 0 mm 1 mps 721 mmHg 90%
22:00 +19°C° 0 mm 1 mps 722 mmHg 92%
23:00 +18°C° 0 mm 1 mps 722 mmHg 93%

Day after tomorrow, 5 July, Sunday

Time Temperature Precipitation Wind Pressure Humidity
00:00 +18°C° 0 mm 1 mps 722 mmHg 94%
01:00 +18°C° 0 mm 1 mps 722 mmHg 96%
02:00 +18°C° 0.1 mm 1 mps 722 mmHg 96%
03:00 +18°C° 0.1 mm 1 mps 722 mmHg 96%
04:00 +19°C° 0.1 mm 1 mps 722 mmHg 96%
05:00 +19°C° 0.2 mm 1 mps 722 mmHg 95%
06:00 +20°C° 0.2 mm 1 mps 722 mmHg 94%
07:00 +20°C° 0.2 mm 1 mps 722 mmHg 93%
08:00 +20°C° 0.3 mm 2 mps 722 mmHg 89%
09:00 +21°C° 0.3 mm 2 mps 722 mmHg 85%
10:00 +23°C° 0.3 mm 2 mps 722 mmHg 81%
11:00 +24°C° 0.5 mm 2 mps 722 mmHg 79%
12:00 +24°C° 0.5 mm 2 mps 722 mmHg 77%
13:00 +25°C° 0.5 mm 2 mps 721 mmHg 76%
14:00 +25°C° 0.2 mm 2 mps 721 mmHg 74%
15:00 +25°C° 0.2 mm 2 mps 721 mmHg 72%
16:00 +25°C° 0.2 mm 2 mps 721 mmHg 70%
17:00 +24°C° 0.1 mm 2 mps 721 mmHg 75%
18:00 +23°C° 0.1 mm 1 mps 721 mmHg 81%
19:00 +20°C° 0.1 mm 0 mps 721 mmHg 86%
20:00 +19°C° 0 mm 0 mps 721 mmHg 88%
21:00 +18°C° 0 mm 0 mps 721 mmHg 89%
22:00 +17°C° 0 mm 0 mps 721 mmHg 90%
23:00 +16°C° 0 mm 0 mps 721 mmHg 90%

6 July, Monday

Time Temperature Precipitation Wind Pressure Humidity
00:00 +16°C° 0 mm 0 mps 720 mmHg 91%
01:00 +16°C° 0 mm 0 mps 720 mmHg 91%
02:00 +16°C° 0 mm 0 mps 720 mmHg 91%
03:00 +15°C° 0 mm 0 mps 720 mmHg 92%
04:00 +15°C° 0 mm 0 mps 719 mmHg 93%
05:00 +17°C° 0 mm 0 mps 719 mmHg 88%
06:00 +19°C° 0 mm 0 mps 720 mmHg 84%
07:00 +20°C° 0 mm 0 mps 720 mmHg 80%
08:00 +24°C° 0 mm 1 mps 720 mmHg 74%
09:00 +25°C° 0 mm 2 mps 720 mmHg 69%
10:00 +26°C° 0 mm 2 mps 720 mmHg 63%
11:00 +26°C° 0 mm 2 mps 719 mmHg 63%
12:00 +27°C° 0 mm 2 mps 719 mmHg 62%
13:00 +27°C° 0 mm 3 mps 718 mmHg 62%
14:00 +27°C° 0.1 mm 2 mps 718 mmHg 64%
15:00 +27°C° 0.1 mm 2 mps 718 mmHg 66%
16:00 +27°C° 0.1 mm 2 mps 718 mmHg 68%
17:00 +25°C° 0.1 mm 2 mps 717 mmHg 74%
18:00 +24°C° 0.1 mm 1 mps 717 mmHg 81%
19:00 +23°C° 0.1 mm 1 mps 717 mmHg 87%
20:00 +22°C° 0 mm 1 mps 717 mmHg 89%
21:00 +19°C° 0 mm 0 mps 718 mmHg 91%
22:00 +18°C° 0 mm 0 mps 718 mmHg 93%
23:00 +17°C° 0 mm 0 mps 718 mmHg 93%

7 July, Tuesday

Time Temperature Precipitation Wind Pressure Humidity
00:00 +17°C° 0 mm 0 mps 718 mmHg 93%
01:00 +17°C° 0 mm 0 mps 718 mmHg 94%
02:00 +19°C° 0.2 mm 1 mps 719 mmHg 93%
03:00 +17°C° 0.2 mm 2 mps 719 mmHg 93%
04:00 +17°C° 0.2 mm 2 mps 719 mmHg 92%
05:00 +16°C° 0.1 mm 2 mps 720 mmHg 92%
06:00 +16°C° 0.1 mm 2 mps 721 mmHg 92%
07:00 +15°C° 0.1 mm 2 mps 721 mmHg 92%
08:00 +15°C° 0 mm 2 mps 722 mmHg 85%
09:00 +16°C° 0 mm 2 mps 722 mmHg 79%
10:00 +16°C° 0 mm 2 mps 722 mmHg 72%
11:00 +16°C° 0 mm 2 mps 722 mmHg 69%
12:00 +17°C° 0 mm 2 mps 722 mmHg 65%
13:00 +18°C° 0 mm 2 mps 722 mmHg 61%
14:00 +18°C° 0 mm 2 mps 722 mmHg 61%
15:00 +19°C° 0 mm 2 mps 722 mmHg 61%
16:00 +19°C° 0 mm 2 mps 722 mmHg 60%
17:00 +19°C° 0 mm 1 mps 722 mmHg 67%
18:00 +16°C° 0 mm 1 mps 722 mmHg 74%
19:00 +15°C° 0 mm 1 mps 722 mmHg 81%
20:00 +14°C° 0 mm 1 mps 722 mmHg 83%
21:00 +13°C° 0 mm 1 mps 722 mmHg 85%
22:00 +12°C° 0 mm 1 mps 722 mmHg 87%
23:00 +11°C° 0 mm 0 mps 722 mmHg 86%

8 July, Wednesday

Time Temperature Precipitation Wind Pressure Humidity
00:00 +11°C° 0 mm 0 mps 722 mmHg 84%
01:00 +11°C° 0 mm 0 mps 722 mmHg 83%
02:00 +11°C° 0 mm 0 mps 722 mmHg 83%
03:00 +10°C° 0 mm 0 mps 722 mmHg 84%
04:00 +10°C° 0 mm 0 mps 722 mmHg 84%
05:00 +12°C° 0 mm 0 mps 723 mmHg 79%
06:00 +14°C° 0 mm 0 mps 723 mmHg 74%
07:00 +16°C° 0 mm 0 mps 724 mmHg 69%
08:00 +20°C° 0 mm 1 mps 724 mmHg 66%
09:00 +21°C° 0 mm 1 mps 724 mmHg 62%
10:00 +21°C° 0 mm 2 mps 725 mmHg 59%
11:00 +23°C° 0 mm 2 mps 725 mmHg 57%
12:00 +22°C° 0 mm 3 mps 724 mmHg 55%
13:00 +24°C° 0 mm 3 mps 724 mmHg 54%
14:00 +24°C° 0 mm 3 mps 724 mmHg 56%
15:00 +24°C° 0 mm 3 mps 724 mmHg 58%
16:00 +22°C° 0 mm 3 mps 724 mmHg 60%
17:00 +21°C° 0 mm 2 mps 724 mmHg 68%
18:00 +19°C° 0 mm 2 mps 724 mmHg 75%
19:00 +19°C° 0 mm 1 mps 724 mmHg 82%
20:00 +16°C° 0 mm 1 mps 724 mmHg 85%
21:00 +15°C° 0 mm 1 mps 724 mmHg 87%
22:00 +13°C° 0 mm 0 mps 725 mmHg 89%
23:00 +12°C° 0 mm 0 mps 725 mmHg 90%
Show more